FW9919 Weather Reports


time (UTC)temp
F
wind
direction
speed
knots
gust
knots
rain 1hr
in
rain 24hr
in
rain mn
in
humidity
%
barometer
mb
20260507040054 56 272 2.6 9.6 0.00 0.00 0.00 89 1020.1
20260507034558 56 284 3.5 7.0 0.00 0.00 0.00 89 1020.1
20260507033051 56 269 5.2 8.7 0.00 0.00 0.00 88 1020.0
20260507031549 56 261 1.7 7.8 0.00 0.00 0.00 88 1020.0
20260507030053 56 263 4.3 9.6 0.00 0.00 0.00 88 1019.9
20260507024556 56 275 7.0 10.4 0.00 0.00 0.00 88 1019.8
20260507023051 57 267 6.1 12.2 0.00 0.00 0.00 87 1019.8
20260507021556 57 277 6.1 11.3 0.00 0.00 0.00 87 1019.8
20260507020054 57 302 7.0 11.3 0.00 0.00 0.00 86 1019.7
20260507014551 57 262 7.0 11.3 0.00 0.00 0.00 86 1019.8
20260507013056 58 273 7.0 11.3 0.00 0.00 0.00 85 1019.9
20260507011553 58 263 7.8 15.6 0.00 0.00 0.00 85 1019.7
20260507010109 58 258 7.8 13.0 0.00 0.00 0.00 84 1019.6
20260507004553 59 260 7.0 13.9 0.00 0.00 0.00 84 1019.5
20260507003050 59 252 6.1 11.3 0.00 0.00 0.00 84 1019.5
20260507001558 59 327 7.8 12.2 0.00 0.00 0.00 83 1019.4
20260507000051 60 279 7.8 13.0 0.00 0.00 0.00 83 1019.3
20260506234602 59 275 8.7 15.6 0.00 0.00 0.00 84 1019.2
20260506233103 59 264 8.7 15.6 0.00 0.00 0.00 84 1019.2
20260506231551 60 302 6.1 15.6 0.00 0.00 0.00 85 1019.4
20260506230053 60 280 9.6 14.8 0.00 0.00 0.00 84 1019.4
20260506224556 59 296 11.3 15.6 0.00 0.00 0.00 83 1019.5
20260506223100 60 267 7.0 12.2 0.00 0.00 0.00 84 1019.6
20260506221600 60 274 10.4 14.8 0.00 0.00 0.00 84 1019.9
20260506220053 60 292 7.0 16.5 0.00 0.00 0.00 82 1020.1
20260506214551 60 277 9.6 13.9 0.00 0.00 0.00 81 1020.1
20260506213054 60 268 8.7 14.8 0.00 0.00 0.00 81 1020.2
20260506211555 60 273 10.4 13.9 0.00 0.00 0.00 82 1020.3
20260506210055 61 302 5.2 13.9 0.00 0.00 0.00 82 1020.2
20260506204554 61 265 8.7 15.6 0.00 0.00 0.00 81 1020.2
20260506203054 61 317 7.0 13.0 0.00 0.00 0.00 79 1020.3
20260506201554 61 309 4.3 16.5 0.00 0.00 0.00 79 1020.4
20260506200056 61 310 8.7 15.6 0.00 0.00 0.00 78 1020.4
20260506194552 60 290 10.4 16.5 0.00 0.00 0.00 77 1020.4
20260506193050 61 304 7.8 13.9 0.00 0.00 0.00 77 1020.4
20260506191557 61 275 5.2 15.6 0.00 0.00 0.00 78 1020.5
20260506190051 61 300 6.1 12.2 0.00 0.00 0.00 78 1020.6
20260506184552 61 298 5.2 13.9 0.00 0.00 0.00 79 1020.6
20260506183050 62 266 7.8 13.0 0.00 0.00 0.00 78 1020.5
20260506181551 61 298 9.6 13.9 0.00 0.00 0.00 79 1020.6
20260506180054 62 294 6.1 13.0 0.00 0.00 0.00 77 1020.6
20260506174600 63 333 4.3 13.9 0.00 0.00 0.00 75 1020.5
20260506173118 63 304 4.3 12.2 0.00 0.00 0.00 74 1020.2
20260506171551 63 26 2.6 13.9 0.00 0.00 0.00 73 1020.2
20260506170053 63 24 3.5 11.3 0.00 0.00 0.00 73 1020.3
20260506164551 62 24 2.6 11.3 0.00 0.00 0.00 74 1020.4
20260506163054 62 47 6.1 10.4 0.00 0.00 0.00 76 1020.3
20260506161600 61 62 6.1 11.3 0.00 0.00 0.00 77 1020.3
20260506160058 61 58 3.5 9.6 0.00 0.00 0.00 80 1020.2
20260506154601 60 360 2.6 7.0 0.00 0.00 0.00 83 1020.5
20260506153049 59 49 5.2 9.6 0.00 0.00 0.00 86 1020.5
20260506151551 57 339 0.0 1.7 0.00 0.00 0.00 89 1020.5
20260506150101 57 0 0.0 1.7 0.00 0.00 0.00 89 1020.6
20260506144608 58 0 0.0 0.9 0.00 0.00 0.00 91 1020.6
20260506143055 56 0 0.0 0.9 0.00 0.00 0.00 92 1020.5
20260506141551 54 0 0.0 0.9 0.00 0.00 0.00 93 1020.7
20260506140105 53 0 0.0 0.9 0.00 0.00 0.00 92 1020.4
20260506134553 52 0 0.0 0.0 0.00 0.00 0.00 92 1020.1
20260506133111 52 0 0.0 3.5 0.00 0.00 0.00 92 1019.9
20260506131550 51 346 2.6 3.5 0.00 0.00 0.00 92 1019.8
20260506130135 51 10 0.9 3.5 0.00 0.00 0.00 92 1019.7
20260506124555 51 11 0.9 2.6 0.00 0.00 0.00 91 1019.7
20260506123053 51 11 1.7 2.6 0.00 0.00 0.00 91 1019.7
20260506121556 52 11 0.9 2.6 0.00 0.00 0.00 91 1019.6
20260506120103 52 11 0.9 2.6 0.00 0.00 0.00 91 1019.6
20260506114554 52 11 1.7 2.6 0.00 0.00 0.00 91 1019.6
20260506113056 52 11 0.9 2.6 0.00 0.00 0.00 91 1019.6
20260506111552 52 11 0.9 1.7 0.00 0.00 0.00 91 1019.5
20260506110054 52 11 1.7 2.6 0.00 0.00 0.00 91 1019.3
20260506104559 52 11 1.7 3.5 0.00 0.00 0.00 91 1019.3
20260506103105 52 11 0.9 2.6 0.00 0.00 0.00 91 1019.3
20260506101553 52 11 0.0 0.9 0.00 0.00 0.00 90 1019.5
20260506100108 53 0 0.0 1.7 0.00 0.00 0.00 90 1019.5
20260506094601 53 11 0.0 1.7 0.00 0.00 0.00 90 1019.6
20260506093051 53 11 0.0 2.6 0.00 0.00 0.00 90 1019.6
20260506091554 53 11 0.9 2.6 0.00 0.00 0.00 89 1019.6
20260506090053 53 11 0.0 1.7 0.00 0.00 0.00 89 1019.7
20260506084556 53 11 0.0 0.9 0.00 0.00 0.00 89 1019.6
20260506083055 53 0 0.0 1.7 0.00 0.00 0.00 89 1019.5
20260506081605 53 11 0.9 2.6 0.00 0.00 0.00 88 1019.4
20260506073053 54 11 0.0 1.7 0.00 0.00 0.00 87 1019.3
20260506071555 55 11 0.0 2.6 0.00 0.00 0.00 87 1019.2
20260506061552 57 0 0.0 2.6 0.00 0.00 0.00 85 1018.8
20260506044555 57 321 0.0 3.5 0.00 0.00 0.00 84 1018.6
20260506043055 57 0 0.0 3.5 0.00 0.00 0.00 84 1018.4
20260506041552 57 355 1.7 4.3 0.00 0.00 0.00 84 1018.3